Home   Weather   Nettetal   Past weeks

Flag for Germany Past Weather in Nettetal, North Rhine-Westphalia, Germany — Yesterday and Last 2 Weeks

Now
48 °F

Clear.


Feels Like: 45 °F
Forecast: 38 / 59 °F
Wind: 8 mph from Northeast

Location: Monchengladbach Airport

Current Time: Apr 23, 2017 at 8:09:29 pm

Latest Report: Apr 23, 2017 at 7:20 pm


Visibility: 10 mi

Pressure: 30.27 "Hg

Humidity: 58%

Dew Point: 34 °F

Location of NettetalLocation

Past Weather in Nettetal — Graph

°F

Nettetal Temperature Yesterday

Maximum temperature yesterday: 52 °F (at 1:20 pm)
Minimum temperature yesterday: 46 °F (at 8:50 pm)
Average temperature yesterday: 50 °F

High & Low Weather Summary for the Past Weeks

 TemperatureHumidityPressure
High73 °F (Apr 9, 4:50 pm)100% (Apr 9, 7:50 am)30.63 "Hg (Apr 9, 7:50 am)
Low30 °F (Apr 20, 7:50 am)25% (Apr 9, 4:50 pm)29.95 "Hg (Apr 12, 4:20 pm)
Average50 °F60%30.22 "Hg
* Reported Apr 8 6:20 pm — Apr 23 6:50 pm, Nettetal, Weather by CustomWeather, © 2017

Note: Actual official high and low records may vary slightly from our data, if they occured in-between our weather recording intervals... More about our weather records

Advertising

Nettetal Weather History for the Previous 24 Hours

Scroll right to see more
 ConditionsComfort  
Time TempWeatherWind HumidityBarometerVisibility
6:50 pm
Sun, Apr 23
50 °FPassing clouds.10 mph54%30.24 "HgN/A
6:20 pm50 °FPassing clouds.8 mph54%30.24 "HgN/A
5:50 pm50 °FPassing clouds.7 mph54%30.27 "HgN/A
5:20 pm52 °FPassing clouds.10 mph50%30.27 "HgN/A
4:50 pm50 °FPassing clouds.10 mph54%30.27 "HgN/A
4:20 pm46 °FPassing clouds.9 mph62%30.27 "HgN/A
3:50 pm48 °FPassing clouds.14 mph58%30.27 "HgN/A
3:20 pm50 °FPassing clouds.10 mph50%30.27 "HgN/A
2:50 pm50 °FScattered showers. Passing clouds.10 mph50%30.27 "HgN/A
1:50 pm50 °FPassing clouds.8 mph50%30.30 "HgN/A
1:20 pm48 °FPassing clouds.12 mph54%30.30 "HgN/A
12:50 pm48 °FPassing clouds.12 mph54%30.30 "HgN/A
12:20 pm48 °FPassing clouds.10 mph54%30.30 "HgN/A
11:50 am48 °FScattered clouds.9 mph50%30.30 "HgN/A
11:20 am48 °FScattered clouds.8 mph50%30.30 "HgN/A
10:50 am48 °FScattered clouds.10 mph54%30.30 "HgN/A
10:20 am46 °FScattered clouds.12 mph57%30.30 "HgN/A
9:50 am46 °FScattered clouds.10 mph62%30.30 "HgN/A
9:20 am45 °FScattered clouds.12 mph66%30.30 "HgN/A
8:50 am43 °FSunny.10 mph76%30.30 "Hg10 mi
8:20 am43 °FSunny.9 mph76%30.30 "Hg10 mi
8:50 pm
Sat, Apr 22
46 °FClear.16 mph53%30.27 "Hg10 mi
8:20 pm48 °FPassing clouds.13 mph54%30.27 "HgN/A
Weather by CustomWeather, © 2017

See weather overviewHow to use our weather pages